Location: Ferchesar
(52.6477°N, 12.4298°E)
Time: 09:55:36
(UTC+01:00)

Tiros 1 despin weight - Pass Details

Date: 14 December 2021
Orbit: 592 x 641 km, 48.2° (Epoch: 19 January)

Event Time Altitude Azimuth Distance (km) Brightness Sun altitude
Rises 10:37:44 0° 238° (WSW) 2,866 ? 11.8°
Reaches altitude 10° 10:40:10 10° 231° (SW) 1,955 ? 11.9°
Maximum altitude 10:44:18 37° 164° (SSE) 937 ? 12.1°
Drops below altitude 10° 10:48:23 10° 96° (E) 1,935 ? 12.3°
Sets 10:50:47 0° 89° (E) 2,834 ? 12.4°
